Regional Weather Roundup
Issued by NWS Sioux Falls, SD

Home | Current Version | Previous Version | Graphics & Text | Print | Product List | Glossary Off
Versions: 1 2 3 4 5 6 7 8 9 10 11 12 13 14 15 16 17 18 19 20 21 22 23 24 25 26 27 28 29 30 31 32 33 34 35 36 37 38 39 40 41 42 43 44 45 46 47 48 49 50

000
ASUS43 KFSD 210102
RWRFSD

WEATHER ROUNDUP FOR SE SOUTH DAKOTA/SW MINNESOTA/NW IOWA
NATIONAL WEATHER SERVICE SIOUX FALLS SD
700 PM CST MON FEB 20 2017

NOTE: "FAIR" INDICATES FEW OR NO CLOUDS BELOW 12,000 FEET WITH NO
SIGNIFICANT WEATHER AND OR OBSTRUCTIONS TO VISIBILITY.


SDZ038>040-050-052>070-210200-
SOUTHEAST SOUTH DAKOTA

CITY           SKY/WX    TMP DP  RH WIND       PRES   REMARKS
BROOKINGS      CLEAR     41  39  93 W9        29.83R
CHAMBERLAIN    CLEAR     44  34  67 CALM      29.85R
HURON          CLEAR     41  39  93 NW3       29.84R
MADISON        FAIR      45  45 100 W9        29.85R
MITCHELL       CLEAR     50  39  66 W5        29.86R
SIOUX FALLS    CLEAR     46  41  82 W8        29.85R
WINNER         FAIR      53  27  36 W3        29.86R
YANKTON        CLEAR     50  39  66 W10       29.87R
$$

MNZ071-072-080-081-089-090-097-098-210200-
SOUTHWEST MINNESOTA

CITY           SKY/WX    TMP DP  RH WIND       PRES   REMARKS
FAIRMONT       CLOUDY    49  46  90 W14       29.78R
JACKSON        PTCLDY    46  41  81 W15G23    29.80R
LUVERNE        CLEAR     43  37  81 W9        29.85R
MARSHALL       CLEAR     46  41  82 W16       29.80R
MONTEVIDEO     PTCLDY    41  41 100 NW7       29.79R
PIPESTONE      CLEAR     46  37  71 NW9       29.82R
REDWOOD FALLS  CLOUDY    45  40  82 NW15      29.76R
TRACY          CLEAR     47  43  85 W10G16    29.80R
WINDOM         CLOUDY    46  43  87 W16       29.78R
WORTHINGTON    CLEAR     45  42  89 W14       29.83R
$$

IAZ001>003-012>014-020>022-031-032-NEZ013-014-SDZ071-210200-
NORTHWEST IOWA

CITY           SKY/WX    TMP DP  RH WIND       PRES   REMARKS
CHEROKEE       PTCLDY    45  45  98 CALM      29.86R
DENISON        CLOUDY    48  45  87 NW6       29.85R
ESTHERVILLE    CLOUDY    47  46  97 W14       29.79R
LE MARS        CLEAR     48  43  81 W7        29.89R
SHELDON        CLEAR     46  46 100 W9        29.84R
SIOUX CITY     CLEAR     51  43  74 NW10      29.88R
SPENCER        CLEAR     47  44  90 W14       29.83R
STORM LAKE     PTCLDY    46  43  87 W14       29.84R
$$

ABBREVIATIONS USED IN REMARKS
   TC - TEMPERATURE IN CELSIUS
  WCI - WIND CHILL INDEX
   HX - HEAT INDEX
  VSB - VISIBILITY




USA.gov is the U.S. government's official web portal to all federal, state and local government web resources and services.